Flag for Canada Weather past 2 weeks in Nanaimo, British Columbia, Canada

Now
49 °F

Cool.


Feels Like: 42 °F
Forecast: 46 / 52 °F
Wind: 18 mph from Southeast

Location: Entrance Island


UV Index: 0 (Low)

Visibility: N/A


Pressure: 29.83 "Hg

Humidity: 92%

Dew point: 46 °F

Location of NanaimoLocation

Historic Weather in Nanaimo

°F

Nanaimo temperature yesterday

Maximum temperature yesterday: 51 °F (at 5:00 PM)
Minimum temperature yesterday: 47 °F (at 5:00 AM)
Average temperature yesterday: 49 °F

Past Weeks' High & Low Weather Summary

 TemperatureHumidityPressure
High56 °F (Apr 14, 8:00 PM)97% (Apr 5, 6:00 PM)30.36 "Hg (Apr 5, 6:00 PM)
Low44 °F (Apr 6, 12:00 AM)39% (Apr 13, 9:00 PM)29.80 "Hg (Apr 3, 7:00 PM)
Average49 °F76%30.09 "Hg
* Reported Apr 2 1:00 AM — Apr 17 1:00 AM, Nanaimo, Weather by CustomWeather, © 2014

Note: Actual official high and low records may vary slightly from our data, if they occured in-between our weather recording intervals... More about our weather records

Advertising

Historic Weather Conditions — Data for Previous 24 hours

 ConditionsComfort  
Time TempWeatherWind HumidityBarometerVisibility
1:00 AM
Apr 17
49 °FCool.17 mph93%29.84 "HgN/A
12:00 AM49 °FCool.17 mph91%29.85 "HgN/A
11:00 PM
Apr 16
49 °FCool.15 mph90%29.88 "HgN/A
10:00 PM49 °FCool.14 mph90%29.90 "HgN/A
9:00 PM50 °FCool.9 mph89%29.91 "HgN/A
8:00 PM50 °FCool.8 mph88%29.92 "HgN/A
7:00 PM49 °FCool.15 mph88%29.93 "HgN/A
6:00 PM50 °FCool.20 mph87%29.93 "HgN/A
5:00 PM51 °FCool.20 mph84%29.94 "HgN/A
4:00 PM50 °FCool.20 mph86%29.95 "HgN/A
3:00 PM50 °FCool.22 mph86%29.96 "HgN/A
2:00 PM50 °FCool.21 mph88%29.97 "HgN/A
1:00 PM50 °FCool.23 mph87%29.98 "HgN/A
12:00 PM50 °FCool.17 mph87%29.98 "HgN/A
11:00 AM49 °FCool.15 mph87%29.98 "HgN/A
10:00 AM49 °FCool.10 mph88%29.99 "HgN/A
9:00 AM48 °FCool.12 mph90%29.99 "HgN/A
8:00 AM48 °FCool.17 mph90%29.99 "HgN/A
7:00 AM47 °FCool.20 mph90%29.99 "HgN/A
6:00 AM47 °FCool.20 mph89%29.99 "HgN/A
5:00 AM47 °FCool.21 mph82%29.99 "HgN/A
4:00 AM47 °FCool.18 mph81%30.00 "HgN/A
3:00 AM48 °FCool.20 mph87%30.01 "HgN/A
Weather by CustomWeather, © 2014

See weather overview